| time (UTC) | temp C | wind direction | speed KPH | gust KPH | rain 1hr cm | rain 24hr cm | rain mn cm | humidity % | barometer mb |
| 20260503190111 | 19 | 304 | 1.6 | 4.8 | 0.00 | 0.00 | 0.00 | 31 | 1006.6 |
| 20260503185608 | 19 | 294 | 4.8 | 11.3 | 0.00 | 0.00 | 0.00 | 28 | 1006.6 |
| 20260503185108 | 19 | 84 | 1.6 | 6.4 | 0.00 | 0.00 | 0.00 | 34 | 1006.6 |
| 20260503184603 | 19 | 271 | 3.2 | 9.7 | 0.00 | 0.00 | 0.00 | 32 | 1006.6 |
| 20260503184100 | 19 | 266 | 3.2 | 4.8 | 0.00 | 0.00 | 0.00 | 35 | 1006.7 |
| 20260503183557 | 19 | 298 | 1.6 | 4.8 | 0.00 | 0.00 | 0.00 | 34 | 1006.7 |
| 20260503183054 | 19 | 276 | 3.2 | 4.8 | 0.00 | 0.00 | 0.00 | 36 | 1006.7 |
| 20260503182553 | 18 | 299 | 1.6 | 4.8 | 0.00 | 0.00 | 0.00 | 34 | 1006.9 |
| 20260503182050 | 18 | 288 | 4.8 | 9.7 | 0.00 | 0.00 | 0.00 | 34 | 1006.8 |
| 20260503181547 | 18 | 301 | 1.6 | 9.7 | 0.00 | 0.00 | 0.00 | 36 | 1007.0 |
| 20260503181043 | 18 | 215 | 3.2 | 6.4 | 0.00 | 0.00 | 0.00 | 37 | 1006.9 |
| 20260503180541 | 18 | 295 | 0.0 | 4.8 | 0.00 | 0.00 | 0.00 | 39 | 1007.0 |
| 20260503180038 | 19 | 322 | 1.6 | 9.7 | 0.00 | 0.00 | 0.00 | 36 | 1006.9 |
| 20260503175535 | 19 | 128 | 3.2 | 3.2 | 0.00 | 0.00 | 0.00 | 38 | 1007.0 |
| 20260503175032 | 18 | 4 | 1.6 | 3.2 | 0.00 | 0.00 | 0.00 | 40 | 1006.9 |
| 20260503174530 | 18 | 9 | 6.4 | 11.3 | 0.00 | 0.00 | 0.00 | 37 | 1007.0 |
| 20260503174026 | 20 | 304 | 1.6 | 6.4 | 0.00 | 0.00 | 0.00 | 35 | 1006.8 |
| 20260503173521 | 18 | 339 | 0.0 | 3.2 | 0.00 | 0.00 | 0.00 | 37 | 1007.0 |
| 20260503173017 | 18 | 246 | 8.0 | 12.9 | 0.00 | 0.00 | 0.00 | 37 | 1007.0 |
| 20260503172515 | 18 | 303 | 3.2 | 9.7 | 0.00 | 0.00 | 0.00 | 37 | 1007.0 |
| 20260503172012 | 18 | 283 | 1.6 | 4.8 | 0.00 | 0.00 | 0.00 | 36 | 1007.0 |
| 20260503171508 | 18 | 319 | 3.2 | 6.4 | 0.00 | 0.00 | 0.00 | 36 | 1007.1 |
| 20260503171006 | 18 | 297 | 4.8 | 9.7 | 0.00 | 0.00 | 0.00 | 35 | 1007.2 |
| 20260503170502 | 18 | 248 | 0.0 | 12.9 | 0.00 | 0.00 | 0.00 | 37 | 1007.1 |
| 20260503150854 | 16 | 316 | 3.2 | 4.8 | 0.00 | 0.00 | 0.00 | 47 | 1007.5 |
| 20260503150350 | 15 | 295 | 1.6 | 1.6 | 0.00 | 0.00 | 0.00 | 47 | 1007.8 |
| 20260503140315 | 13 | 279 | 3.2 | 4.8 | 0.00 | 0.00 | 0.00 | 52 | 1008.0 |
| 20260503131244 | 10 | 164 | 4.8 | 6.4 | 0.00 | 0.00 | 0.00 | 72 | 1008.3 |
| 20260503130742 | 10 | 220 | 1.6 | 3.2 | 0.00 | 0.00 | 0.00 | 71 | 1008.5 |
| 20260503130239 | 9 | 279 | 0.0 | 3.2 | 0.00 | 0.00 | 0.00 | 76 | 1008.5 |
| 20260503120205 | 6 | 290 | 0.0 | 0.0 | 0.00 | 0.00 | 0.00 | 88 | 1008.3 |
| 20260503110632 | 5 | 254 | 0.0 | 0.0 | 0.00 | 0.00 | 0.00 | 91 | 1008.2 |
| 20260503110130 | 5 | 254 | 0.0 | 0.0 | 0.00 | 0.00 | 0.00 | 89 | 1008.3 |
| 20260503081445 | 8 | 266 | 0.0 | 0.0 | 0.00 | 0.00 | 0.00 | 86 | 1009.9 |
| 20260503080943 | 8 | 266 | 0.0 | 0.0 | 0.00 | 0.00 | 0.00 | 83 | 1010.2 |
| 20260503080439 | 8 | 266 | 0.0 | 0.0 | 0.00 | 0.00 | 0.00 | 81 | 1009.9 |
| 20260503072915 | 8 | 267 | 0.0 | 0.0 | 0.00 | 0.00 | 0.00 | 82 | 1010.6 |
| 20260503072413 | 8 | 267 | 0.0 | 1.6 | 0.00 | 0.00 | 0.00 | 84 | 1010.7 |
| 20260503071909 | 8 | 240 | 0.0 | 0.0 | 0.00 | 0.00 | 0.00 | 85 | 1010.8 |
| 20260503071407 | 8 | 269 | 0.0 | 0.0 | 0.00 | 0.00 | 0.00 | 84 | 1011.0 |
| 20260503070902 | 8 | 289 | 0.0 | 0.0 | 0.00 | 0.00 | 0.00 | 81 | 1010.9 |
| 20260503070400 | 9 | 289 | 0.0 | 0.0 | 0.00 | 0.00 | 0.00 | 77 | 1010.9 |
| 20260503060326 | 10 | 279 | 0.0 | 0.0 | 0.00 | 0.00 | 0.00 | 69 | 1011.3 |
| 20260503054814 | 10 | 285 | 0.0 | 0.0 | 0.00 | 0.00 | 0.00 | 67 | 1011.2 |
| 20260503054309 | 10 | 295 | 0.0 | 0.0 | 0.00 | 0.00 | 0.00 | 66 | 1011.3 |
| 20260503053807 | 10 | 290 | 0.0 | 0.0 | 0.00 | 0.00 | 0.00 | 64 | 1011.4 |
| 20260503053306 | 10 | 286 | 0.0 | 0.0 | 0.00 | 0.00 | 0.00 | 61 | 1011.4 |
| 20260503052801 | 10 | 291 | 0.0 | 1.6 | 0.00 | 0.00 | 0.00 | 62 | 1011.4 |
| 20260503052259 | 10 | 266 | 0.0 | 1.6 | 0.00 | 0.00 | 0.00 | 63 | 1011.3 |
| 20260503051754 | 10 | 287 | 0.0 | 0.0 | 0.00 | 0.00 | 0.00 | 58 | 1011.4 |
| 20260503051251 | 10 | 266 | 0.0 | 0.0 | 0.00 | 0.00 | 0.00 | 61 | 1011.6 |
| 20260503050748 | 10 | 291 | 0.0 | 0.0 | 0.00 | 0.00 | 0.00 | 59 | 1011.4 |
| 20260503050244 | 10 | 297 | 0.0 | 0.0 | 0.00 | 0.00 | 0.00 | 59 | 1011.4 |
| 20260503045742 | 10 | 272 | 0.0 | 1.6 | 0.00 | 0.00 | 0.00 | 57 | 1011.4 |
| 20260503045240 | 10 | 269 | 0.0 | 1.6 | 0.00 | 0.00 | 0.00 | 58 | 1011.4 |
| 20260503044736 | 10 | 270 | 0.0 | 1.6 | 0.00 | 0.00 | 0.00 | 55 | 1011.4 |
| 20260503044233 | 10 | 266 | 0.0 | 0.0 | 0.00 | 0.00 | 0.00 | 57 | 1011.5 |
| 20260503043730 | 10 | 258 | 0.0 | 1.6 | 0.00 | 0.00 | 0.00 | 59 | 1011.6 |
| 20260503043227 | 10 | 252 | 0.0 | 1.6 | 0.00 | 0.00 | 0.00 | 55 | 1011.8 |
| 20260503042723 | 10 | 280 | 0.0 | 1.6 | 0.00 | 0.00 | 0.00 | 54 | 1011.8 |
| 20260503042220 | 10 | 287 | 0.0 | 0.0 | 0.00 | 0.00 | 0.00 | 57 | 1011.7 |
| 20260503041716 | 10 | 144 | 4.8 | 6.4 | 0.00 | 0.00 | 0.00 | 52 | 1011.9 |
| 20260503041214 | 10 | 235 | 1.6 | 3.2 | 0.00 | 0.00 | 0.00 | 56 | 1011.8 |
| 20260503040711 | 10 | 259 | 0.0 | 1.6 | 0.00 | 0.00 | 0.00 | 58 | 1011.6 |
| 20260503040209 | 10 | 287 | 0.0 | 0.0 | 0.00 | 0.00 | 0.00 | 54 | 1011.9 |
| 20260503035705 | 10 | 320 | 0.0 | 0.0 | 0.00 | 0.00 | 0.00 | 52 | 1011.8 |
| 20260503035203 | 10 | 199 | 3.2 | 3.2 | 0.00 | 0.00 | 0.00 | 53 | 1012.0 |
| 20260503034700 | 10 | 274 | 0.0 | 3.2 | 0.00 | 0.00 | 0.00 | 53 | 1011.8 |
| 20260503034157 | 10 | 268 | 0.0 | 3.2 | 0.00 | 0.00 | 0.00 | 53 | 1012.3 |
| 20260503033654 | 10 | 112 | 1.6 | 3.2 | 0.00 | 0.00 | 0.00 | 50 | 1012.1 |
| 20260503033152 | 10 | 209 | 1.6 | 6.4 | 0.00 | 0.00 | 0.00 | 54 | 1012.1 |
| 20260503032649 | 10 | 207 | 3.2 | 3.2 | 0.00 | 0.00 | 0.00 | 57 | 1012.4 |
| 20260503032148 | 10 | 254 | 0.0 | 3.2 | 0.00 | 0.00 | 0.00 | 52 | 1012.5 |
| 20260503031645 | 10 | 252 | 0.0 | 0.0 | 0.00 | 0.00 | 0.00 | 62 | 1012.4 |
| 20260503031143 | 9 | 259 | 0.0 | 0.0 | 0.00 | 0.00 | 0.00 | 57 | 1012.3 |
| 20260503030638 | 9 | 225 | 1.6 | 3.2 | 0.00 | 0.00 | 0.00 | 62 | 1012.6 |
| 20260503030135 | 9 | 223 | 1.6 | 3.2 | 0.00 | 0.00 | 0.00 | 64 | 1012.5 |
| 20260503025632 | 10 | 263 | 0.0 | 0.0 | 0.00 | 0.00 | 0.00 | 68 | 1012.6 |
| 20260503025130 | 10 | 274 | 0.0 | 0.0 | 0.00 | 0.00 | 0.00 | 61 | 1012.7 |
| 20260503024626 | 10 | 261 | 0.0 | 0.0 | 0.00 | 0.00 | 0.00 | 60 | 1012.6 |
| 20260503024123 | 10 | 248 | 0.0 | 1.6 | 0.00 | 0.00 | 0.00 | 60 | 1012.8 |
| 20260503023621 | 10 | 260 | 0.0 | 0.0 | 0.00 | 0.00 | 0.00 | 61 | 1012.8 |
| 20260503023118 | 10 | 253 | 0.0 | 0.0 | 0.00 | 0.00 | 0.00 | 59 | 1012.9 |
| 20260503022613 | 10 | 264 | 0.0 | 0.0 | 0.00 | 0.00 | 0.00 | 59 | 1013.0 |
| 20260503022108 | 10 | 265 | 0.0 | 0.0 | 0.00 | 0.00 | 0.00 | 60 | 1013.0 |
| 20260503021606 | 10 | 265 | 0.0 | 0.0 | 0.00 | 0.00 | 0.00 | 59 | 1012.8 |
| 20260503021102 | 10 | 265 | 0.0 | 0.0 | 0.00 | 0.00 | 0.00 | 57 | 1013.0 |
| 20260503020559 | 10 | 266 | 0.0 | 0.0 | 0.00 | 0.00 | 0.00 | 62 | 1013.1 |
| 20260503020056 | 10 | 257 | 0.0 | 0.0 | 0.00 | 0.00 | 0.00 | 66 | 1013.1 |
| 20260503015553 | 10 | 270 | 0.0 | 0.0 | 0.00 | 0.00 | 0.00 | 63 | 1013.0 |
| 20260503015050 | 11 | 269 | 0.0 | 0.0 | 0.00 | 0.00 | 0.00 | 63 | 1012.9 |
| 20260503014546 | 11 | 271 | 0.0 | 0.0 | 0.00 | 0.00 | 0.00 | 59 | 1013.1 |
| 20260503014044 | 11 | 271 | 0.0 | 0.0 | 0.00 | 0.00 | 0.00 | 53 | 1012.9 |
| 20260503013541 | 11 | 271 | 0.0 | 0.0 | 0.00 | 0.00 | 0.00 | 58 | 1012.9 |
| 20260503013039 | 11 | 279 | 0.0 | 0.0 | 0.00 | 0.00 | 0.00 | 51 | 1013.1 |
| 20260503012536 | 11 | 280 | 0.0 | 0.0 | 0.00 | 0.00 | 0.00 | 49 | 1013.1 |
| 20260503012032 | 12 | 279 | 0.0 | 0.0 | 0.00 | 0.00 | 0.00 | 49 | 1013.1 |
| 20260503011529 | 12 | 279 | 0.0 | 0.0 | 0.00 | 0.00 | 0.00 | 48 | 1013.2 |
| 20260503011026 | 12 | 280 | 0.0 | 0.0 | 0.00 | 0.00 | 0.00 | 44 | 1013.0 |
| 20260503010522 | 12 | 279 | 0.0 | 0.0 | 0.00 | 0.00 | 0.00 | 45 | 1013.1 |
| 20260503010020 | 12 | 236 | 0.0 | 1.6 | 0.00 | 0.00 | 0.00 | 45 | 1013.1 |
| 20260503005517 | 12 | 270 | 0.0 | 0.0 | 0.00 | 0.00 | 0.00 | 44 | 1013.2 |
| 20260503005014 | 12 | 252 | 1.6 | 1.6 | 0.00 | 0.00 | 0.00 | 43 | 1013.2 |
| 20260503004510 | 12 | 291 | 0.0 | 1.6 | 0.00 | 0.00 | 0.00 | 41 | 1013.3 |
| 20260503004008 | 12 | 282 | 0.0 | 0.0 | 0.00 | 0.00 | 0.00 | 43 | 1013.1 |
| 20260503003505 | 13 | 299 | 0.0 | 1.6 | 0.00 | 0.00 | 0.00 | 43 | 1013.4 |
| 20260503003002 | 13 | 325 | 0.0 | 6.4 | 0.00 | 0.00 | 0.00 | 42 | 1013.4 |
| 20260503002459 | 13 | 291 | 0.0 | 1.6 | 0.00 | 0.00 | 0.00 | 41 | 1013.4 |
| 20260503001955 | 13 | 310 | 1.6 | 3.2 | 0.00 | 0.00 | 0.00 | 40 | 1013.3 |
| 20260503001452 | 13 | 278 | 0.0 | 0.0 | 0.00 | 0.00 | 0.00 | 41 | 1013.4 |
| 20260503000949 | 13 | 302 | 1.6 | 1.6 | 0.00 | 0.00 | 0.00 | 39 | 1013.6 |
| 20260503000446 | 13 | 304 | 0.0 | 0.0 | 0.00 | 0.00 | 0.00 | 41 | 1013.6 |
| 20260502235944 | 13 | 292 | 0.0 | 1.6 | 0.00 | 0.00 | 0.00 | 40 | 1013.5 |
| 20260502235440 | 13 | 267 | 0.0 | 0.0 | 0.00 | 0.00 | 0.00 | 41 | 1013.7 |
| 20260502234938 | 13 | 298 | 1.6 | 3.2 | 0.00 | 0.00 | 0.00 | 37 | 1013.8 |
| 20260502234434 | 13 | 129 | 3.2 | 4.8 | 0.00 | 0.00 | 0.00 | 36 | 1013.7 |
| 20260502233932 | 13 | 333 | 1.6 | 3.2 | 0.00 | 0.00 | 0.00 | 41 | 1013.6 |
| 20260502233426 | 13 | 286 | 0.0 | 1.6 | 0.00 | 0.00 | 0.00 | 37 | 1013.7 |
| 20260502232924 | 13 | 135 | 4.8 | 6.4 | 0.00 | 0.00 | 0.00 | 33 | 1013.7 |
| 20260502232420 | 13 | 289 | 1.6 | 6.4 | 0.00 | 0.00 | 0.00 | 34 | 1013.6 |
| 20260502231917 | 13 | 97 | 4.8 | 6.4 | 0.00 | 0.00 | 0.00 | 34 | 1013.6 |
| 20260502231414 | 13 | 193 | 3.2 | 6.4 | 0.00 | 0.00 | 0.00 | 34 | 1013.9 |
| 20260502230913 | 14 | 340 | 0.0 | 4.8 | 0.00 | 0.00 | 0.00 | 32 | 1013.8 |
| 20260502230410 | 14 | 271 | 1.6 | 4.8 | 0.00 | 0.00 | 0.00 | 37 | 1014.0 |
| 20260502225908 | 15 | 187 | 4.8 | 4.8 | 0.00 | 0.00 | 0.00 | 33 | 1013.9 |
| 20260502225404 | 14 | 272 | 0.0 | 1.6 | 0.00 | 0.00 | 0.00 | 33 | 1013.9 |
| 20260502224901 | 14 | 171 | 3.2 | 4.8 | 0.00 | 0.00 | 0.00 | 36 | 1014.1 |
| 20260502224356 | 13 | 274 | 0.0 | 3.2 | 0.00 | 0.00 | 0.00 | 33 | 1014.2 |
| 20260502223854 | 13 | 333 | 0.0 | 3.2 | 0.00 | 0.00 | 0.00 | 35 | 1014.2 |
| 20260502223352 | 13 | 279 | 0.0 | 6.4 | 0.00 | 0.00 | 0.00 | 32 | 1014.1 |
| 20260502222850 | 14 | 294 | 1.6 | 3.2 | 0.00 | 0.00 | 0.00 | 32 | 1014.3 |
| 20260502222348 | 14 | 271 | 0.0 | 3.2 | 0.00 | 0.00 | 0.00 | 32 | 1014.1 |
| 20260502221843 | 14 | 283 | 0.0 | 4.8 | 0.00 | 0.00 | 0.00 | 31 | 1014.2 |
| 20260502221339 | 15 | 261 | 1.6 | 3.2 | 0.00 | 0.00 | 0.00 | 30 | 1014.4 |
| 20260502220837 | 15 | 90 | 3.2 | 4.8 | 0.00 | 0.00 | 0.00 | 34 | 1014.3 |
| 20260502220332 | 14 | 290 | 0.0 | 4.8 | 0.00 | 0.00 | 0.00 | 32 | 1014.4 |
| 20260502215829 | 14 | 307 | 3.2 | 3.2 | 0.00 | 0.00 | 0.00 | 29 | 1014.2 |
| 20260502215327 | 14 | 266 | 1.6 | 1.6 | 0.00 | 0.00 | 0.00 | 32 | 1014.3 |
| 20260502214823 | 14 | 273 | 1.6 | 1.6 | 0.00 | 0.00 | 0.00 | 32 | 1014.4 |
| 20260502214320 | 13 | 309 | 1.6 | 3.2 | 0.00 | 0.00 | 0.00 | 32 | 1014.6 |
| 20260502213817 | 14 | 269 | 1.6 | 3.2 | 0.00 | 0.00 | 0.00 | 30 | 1014.4 |
| 20260502213314 | 14 | 298 | 1.6 | 9.7 | 0.00 | 0.00 | 0.00 | 32 | 1014.6 |
| 20260502212813 | 15 | 294 | 0.0 | 3.2 | 0.00 | 0.00 | 0.00 | 31 | 1014.6 |
| 20260502212311 | 15 | 276 | 3.2 | 11.3 | 0.00 | 0.00 | 0.00 | 28 | 1014.7 |
| 20260502211808 | 15 | 261 | 1.6 | 3.2 | 0.00 | 0.00 | 0.00 | 30 | 1014.4 |
| 20260502211258 | 15 | 237 | 1.6 | 4.8 | 0.00 | 0.00 | 0.00 | 28 | 1014.7 |
| 20260502210755 | 15 | 7 | 1.6 | 6.4 | 0.00 | 0.00 | 0.00 | 30 | 1014.6 |
| 20260502210253 | 15 | 313 | 3.2 | 11.3 | 0.00 | 0.00 | 0.00 | 30 | 1014.9 |
| 20260502205750 | 15 | 160 | 3.2 | 9.7 | 0.00 | 0.00 | 0.00 | 31 | 1014.8 |
| 20260502205246 | 13 | 125 | 3.2 | 9.7 | 0.00 | 0.00 | 0.00 | 34 | 1015.0 |
| 20260502204743 | 14 | 260 | 1.6 | 9.7 | 0.00 | 0.00 | 0.00 | 30 | 1015.0 |
| 20260502204240 | 15 | 246 | 3.2 | 4.8 | 0.00 | 0.00 | 0.00 | 28 | 1015.1 |
| 20260502203738 | 15 | 319 | 3.2 | 3.2 | 0.00 | 0.00 | 0.00 | 30 | 1015.0 |
| 20260502203236 | 14 | 262 | 3.2 | 4.8 | 0.00 | 0.00 | 0.00 | 29 | 1015.2 |
| 20260502202735 | 14 | 276 | 1.6 | 6.4 | 0.00 | 0.00 | 0.00 | 29 | 1015.3 |
| 20260502202234 | 14 | 179 | 4.8 | 6.4 | 0.00 | 0.00 | 0.00 | 29 | 1015.2 |
| 20260502201731 | 14 | 146 | 4.8 | 6.4 | 0.00 | 0.00 | 0.00 | 28 | 1015.5 |
| 20260502201227 | 14 | 76 | 6.4 | 12.9 | 0.00 | 0.00 | 0.00 | 28 | 1015.5 |
| 20260502200723 | 13 | 296 | 1.6 | 4.8 | 0.00 | 0.00 | 0.00 | 30 | 1015.6 |
| 20260502200220 | 13 | 268 | 0.0 | 4.8 | 0.00 | 0.00 | 0.00 | 33 | 1015.7 |
| 20260502195719 | 13 | 294 | 0.0 | 4.8 | 0.00 | 0.00 | 0.00 | 32 | 1015.9 |
| 20260502195215 | 13 | 211 | 3.2 | 12.9 | 0.00 | 0.00 | 0.00 | 32 | 1015.8 |
| 20260502194711 | 13 | 164 | 3.2 | 4.8 | 0.00 | 0.00 | 0.00 | 29 | 1015.9 |
| 20260502194209 | 13 | 309 | 1.6 | 3.2 | 0.00 | 0.00 | 0.00 | 29 | 1016.3 |
| 20260502193659 | 13 | 269 | 1.6 | 3.2 | 0.00 | 0.00 | 0.00 | 28 | 1016.3 |
| 20260502193156 | 13 | 262 | 0.0 | 4.8 | 0.00 | 0.00 | 0.00 | 30 | 1016.5 |
| 20260502192651 | 13 | 282 | 3.2 | 6.4 | 0.00 | 0.00 | 0.00 | 28 | 1016.4 |
| 20260502192149 | 13 | 354 | 1.6 | 4.8 | 0.00 | 0.00 | 0.00 | 34 | 1016.5 |
| 20260502191646 | 13 | 359 | 1.6 | 3.2 | 0.00 | 0.00 | 0.00 | 27 | 1016.5 |
| 20260502191143 | 13 | 137 | 0.0 | 6.4 | 0.00 | 0.00 | 0.00 | 32 | 1017.0 |
| 20260502190640 | 13 | 277 | 0.0 | 6.4 | 0.00 | 0.00 | 0.00 | 34 | 1016.7 |